Time,TemperatureF,DewpointF,PressureIn,WindDirection,WindDirectionDegrees,WindSpeedMPH,WindSpeedGustMPH,Humidity,HourlyPrecipIn,Conditions,Clouds,dailyrainin,SoftwareType,DateUTC
2013-01-08 00:01:00,49.5,37.8,30.00,NE,54,2.0,5.0,64,0.00,NA,NA,-99.99,VWS Version 10.39,2013-01-08 08:01:00,
2013-01-08 00:06:00,49.3,37.7,30.00,NE,51,4.0,5.0,64,0.00,NA,NA,-99.99,VWS Version 10.39,2013-01-08 08:06:00,
2013-01-08 00:11:00,49.4,37.3,30.00,ENE,63,2.0,4.0,63,0.00,NA,NA,-99.99,VWS Version 10.39,2013-01-08 08:11:00,
2013-01-08 00:16:00,49.6,37.5,30.00,ENE,76,2.0,2.0,63,0.00,NA,NA,-99.99,VWS Version 10.39,2013-01-08 08:16:00,
2013-01-08 00:21:00,49.6,37.9,30.00,East,82,1.0,2.0,64,0.00,NA,NA,-99.99,VWS Version 10.39,2013-01-08 08:21:00,
2013-01-08 00:26:00,49.4,37.8,30.00,East,82,2.0,2.0,64,0.00,NA,NA,-99.99,VWS Version 10.39,2013-01-08 08:26:00,
2013-01-08 00:31:00,49.2,38.3,30.00,ENE,63,1.0,3.0,66,0.00,NA,NA,-99.99,VWS Version 10.39,2013-01-08 08:31:00,
2013-01-08 00:36:00,49.5,39.4,30.00,East,81,1.0,2.0,68,0.00,NA,NA,-99.99,VWS Version 10.39,2013-01-08 08:36:00,
2013-01-08 00:41:00,49.4,38.5,30.00,North,10,2.0,4.0,66,0.00,NA,NA,-99.99,VWS Version 10.39,2013-01-08 08:41:00,
2013-01-08 00:46:00,49.0,38.2,30.00,NE,36,1.0,2.0,66,0.00,NA,NA,-99.99,VWS Version 10.39,2013-01-08 08:46:00,
2013-01-08 00:51:00,48.7,37.5,30.00,ENE,59,7.0,8.0,65,0.00,NA,NA,-99.99,VWS Version 10.39,2013-01-08 08:51:00,
2013-01-08 00:56:00,48.6,37.8,30.00,NE,42,0.0,1.0,66,0.00,NA,NA,-99.99,VWS Version 10.39,2013-01-08 08:56:00,
2013-01-08 01:01:00,48.9,38.4,30.00,NE,44,3.0,6.0,67,0.00,NA,NA,-99.99,VWS Version 10.39,2013-01-08 09:01:00,
2013-01-08 01:06:00,48.9,38.4,30.00,ENE,75,0.0,0.0,67,0.00,NA,NA,-99.99,VWS Version 10.39,2013-01-08 09:06:00,
2013-01-08 01:11:00,48.5,37.7,30.00,ENE,71,4.0,7.0,66,0.00,NA,NA,-99.99,VWS Version 10.39,2013-01-08 09:11:00,
2013-01-08 01:16:00,48.3,39.3,30.00,NE,54,0.0,1.0,71,0.00,NA,NA,-99.99,VWS Version 10.39,2013-01-08 09:16:00,
2013-01-08 01:21:00,48.6,38.5,30.00,ENE,74,2.0,3.0,68,0.00,NA,NA,-99.99,VWS Version 10.39,2013-01-08 09:21:00,
2013-01-08 01:26:00,48.8,40.2,30.00,East,88,2.0,3.0,72,0.00,NA,NA,-99.99,VWS Version 10.39,2013-01-08 09:26:00,
2013-01-08 01:31:00,48.5,40.2,30.00,East,101,2.0,3.0,73,0.00,NA,NA,-99.99,VWS Version 10.39,2013-01-08 09:31:00,
2013-01-08 01:36:00,48.7,41.5,30.00,NE,50,4.0,4.0,76,0.00,NA,NA,-99.99,VWS Version 10.39,2013-01-08 09:36:00,
2013-01-08 01:41:00,48.2,41.0,30.00,NE,40,2.0,4.0,76,0.00,NA,NA,-99.99,VWS Version 10.39,2013-01-08 09:41:00,
2013-01-08 01:46:00,48.3,42.1,30.00,ENE,63,2.0,4.0,79,0.00,NA,NA,-99.99,VWS Version 10.39,2013-01-08 09:46:00,
2013-01-08 01:51:00,48.6,42.1,30.00,ENE,57,1.0,2.0,78,0.00,NA,NA,-99.99,VWS Version 10.39,2013-01-08 09:51:00,
2013-01-08 01:56:00,48.3,40.4,30.00,NE,52,4.0,5.0,74,0.00,NA,NA,-99.99,VWS Version 10.39,2013-01-08 09:56:00,
2013-01-08 02:01:00,48.6,39.3,30.00,ENE,57,4.0,4.0,70,0.00,NA,NA,-99.99,VWS Version 10.39,2013-01-08 10:01:00,
2013-01-08 02:06:00,48.3,38.6,30.00,ENE,71,2.0,4.0,69,0.00,NA,NA,-99.99,VWS Version 10.39,2013-01-08 10:06:00,
2013-01-08 02:11:00,48.2,38.2,30.00,ENE,61,3.0,3.0,68,0.00,NA,NA,-99.99,VWS Version 10.39,2013-01-08 10:11:00,
2013-01-08 02:16:00,48.1,37.7,30.00,NE,54,2.0,3.0,67,0.00,NA,NA,-99.99,VWS Version 10.39,2013-01-08 10:16:00,
2013-01-08 02:21:00,47.9,37.1,30.00,NE,49,4.0,4.0,66,0.00,NA,NA,-99.99,VWS Version 10.39,2013-01-08 10:21:00,
2013-01-08 02:26:00,48.0,36.8,30.00,ENE,59,4.0,5.0,65,0.00,NA,NA,-99.99,VWS Version 10.39,2013-01-08 10:26:00,
2013-01-08 02:31:00,48.1,36.9,30.00,ENE,58,4.0,5.0,65,0.00,NA,NA,-99.99,VWS Version 10.39,2013-01-08 10:31:00,
2013-01-08 02:36:00,48.1,36.9,30.00,ENE,58,2.0,4.0,65,0.00,NA,NA,-99.99,VWS Version 10.39,2013-01-08 10:36:00,
2013-01-08 02:41:00,48.1,36.1,30.00,NE,53,3.0,3.0,63,0.00,NA,NA,-99.99,VWS Version 10.39,2013-01-08 10:41:00,
2013-01-08 02:46:00,48.3,36.3,30.00,NE,55,1.0,2.0,63,0.00,NA,NA,-99.99,VWS Version 10.39,2013-01-08 10:46:00,
2013-01-08 02:51:00,48.2,35.4,30.00,NE,55,1.0,1.0,61,0.00,NA,NA,-99.99,VWS Version 10.39,2013-01-08 10:51:00,
2013-01-08 02:56:00,48.3,35.1,30.00,ENE,67,2.0,2.0,60,0.00,NA,NA,-99.99,VWS Version 10.39,2013-01-08 10:56:00,
2013-01-08 03:01:00,48.5,35.3,30.00,ENE,63,1.0,2.0,60,0.00,NA,NA,-99.99,VWS Version 10.39,2013-01-08 11:01:00,
2013-01-08 03:06:00,48.6,34.9,30.00,NE,53,1.0,3.0,59,0.00,NA,NA,-99.99,VWS Version 10.39,2013-01-08 11:06:00,
2013-01-08 03:11:00,48.6,34.9,30.00,NE,53,0.0,2.0,59,0.00,NA,NA,-99.99,VWS Version 10.39,2013-01-08 11:11:00,
2013-01-08 03:16:00,48.7,35.0,30.00,ENE,60,3.0,4.0,59,0.00,NA,NA,-99.99,VWS Version 10.39,2013-01-08 11:16:00,
2013-01-08 03:21:00,48.7,36.3,30.00,NE,55,4.0,6.0,62,0.00,NA,NA,-99.99,VWS Version 10.39,2013-01-08 11:21:00,
2013-01-08 03:26:00,48.7,36.3,30.00,NE,55,0.0,1.0,62,0.00,NA,NA,-99.99,VWS Version 10.39,2013-01-08 11:26:00,
2013-01-08 03:31:00,48.5,35.7,30.00,NE,41,4.0,4.0,61,0.00,NA,NA,-99.99,VWS Version 10.39,2013-01-08 11:31:00,
2013-01-08 03:36:00,48.5,36.5,30.00,NE,39,2.0,4.0,63,0.00,NA,NA,-99.99,VWS Version 10.39,2013-01-08 11:36:00,
2013-01-08 03:41:00,48.7,36.3,30.00,NE,52,4.0,5.0,62,0.00,NA,NA,-99.99,VWS Version 10.39,2013-01-08 11:41:00,
2013-01-08 03:46:00,48.6,36.6,30.00,ENE,64,2.0,6.0,63,0.00,NA,NA,-99.99,VWS Version 10.39,2013-01-08 11:46:00,
2013-01-08 03:51:00,48.5,36.9,30.00,ENE,61,4.0,4.0,64,0.00,NA,NA,-99.99,VWS Version 10.39,2013-01-08 11:51:00,
2013-01-08 03:56:00,48.4,36.4,30.00,ENE,66,3.0,4.0,63,0.00,NA,NA,-99.99,VWS Version 10.39,2013-01-08 11:56:00,
2013-01-08 04:01:00,48.1,36.1,30.00,NE,51,3.0,3.0,63,0.00,NA,NA,-99.99,VWS Version 10.39,2013-01-08 12:01:00,
2013-01-08 04:06:00,48.5,35.7,30.00,NE,37,4.0,4.0,61,0.00,NA,NA,-99.99,VWS Version 10.39,2013-01-08 12:06:00,
2013-01-08 04:11:00,48.3,35.1,30.00,NE,53,3.0,6.0,60,0.00,NA,NA,-99.99,VWS Version 10.39,2013-01-08 12:11:00,
2013-01-08 04:16:00,48.6,34.9,30.00,NE,48,3.0,3.0,59,0.00,NA,NA,-99.99,VWS Version 10.39,2013-01-08 12:16:00,
2013-01-08 04:21:00,49.2,34.6,30.00,NE,39,1.0,2.0,57,0.00,NA,NA,-99.99,VWS Version 10.39,2013-01-08 12:21:00,
2013-01-08 04:26:00,49.4,34.8,30.00,NE,34,3.0,3.0,57,0.00,NA,NA,-99.99,VWS Version 10.39,2013-01-08 12:26:00,
2013-01-08 04:31:00,49.0,34.9,30.00,NE,53,0.0,2.0,58,0.00,NA,NA,-99.99,VWS Version 10.39,2013-01-08 12:31:00,
2013-01-08 04:36:00,48.7,34.2,30.00,NE,41,2.0,3.0,57,0.00,NA,NA,-99.99,VWS Version 10.39,2013-01-08 12:36:00,
2013-01-08 04:41:00,48.8,34.3,30.00,ENE,57,3.0,4.0,57,0.00,NA,NA,-99.99,VWS Version 10.39,2013-01-08 12:41:00,
2013-01-08 04:46:00,48.7,34.6,30.00,NE,49,3.0,3.0,58,0.00,NA,NA,-99.99,VWS Version 10.39,2013-01-08 12:46:00,
2013-01-08 04:51:00,48.3,35.1,30.00,NNE,13,2.0,3.0,60,0.00,NA,NA,-99.99,VWS Version 10.39,2013-01-08 12:51:00,
2013-01-08 04:56:00,48.5,36.1,30.00,NNE,13,1.0,2.0,62,0.00,NA,NA,-99.99,VWS Version 10.39,2013-01-08 12:56:00,
2013-01-08 05:01:00,48.8,37.2,30.00,NNE,13,1.0,2.0,64,0.00,NA,NA,-99.99,VWS Version 10.39,2013-01-08 13:01:00,
2013-01-08 05:11:00,48.4,36.4,30.00,East,92,1.0,2.0,63,0.00,NA,NA,-99.99,VWS Version 10.39,2013-01-08 13:11:00,
2013-01-08 05:16:00,48.2,37.0,30.00,East,92,2.0,2.0,65,0.00,NA,NA,-99.99,VWS Version 10.39,2013-01-08 13:16:00,
2013-01-08 05:21:00,48.2,36.6,30.00,East,92,2.0,2.0,64,0.00,NA,NA,-99.99,VWS Version 10.39,2013-01-08 13:21:00,
2013-01-08 05:26:00,48.0,36.8,30.05,ENE,65,1.0,2.0,65,0.00,NA,NA,-99.99,VWS Version 10.39,2013-01-08 13:26:00,
2013-01-08 05:31:00,48.4,37.6,30.05,ENE,64,1.0,2.0,66,0.00,NA,NA,-99.99,VWS Version 10.39,2013-01-08 13:31:00,
2013-01-08 05:36:00,48.6,37.4,30.05,NE,51,2.0,3.0,65,0.00,NA,NA,-99.99,VWS Version 10.39,2013-01-08 13:36:00,
2013-01-08 05:41:00,48.2,37.4,30.05,NE,49,1.0,1.0,66,0.00,NA,NA,-99.99,VWS Version 10.39,2013-01-08 13:41:00,
2013-01-08 05:46:00,48.1,37.7,30.05,NE,49,1.0,1.0,67,0.00,NA,NA,-99.99,VWS Version 10.39,2013-01-08 13:46:00,
2013-01-08 05:56:00,48.1,38.0,30.05,ENE,59,1.0,2.0,68,0.00,NA,NA,-99.99,VWS Version 10.39,2013-01-08 13:56:00,
2013-01-08 06:01:00,48.0,38.0,30.05,NE,53,0.0,3.0,68,0.00,NA,NA,-99.99,VWS Version 10.39,2013-01-08 14:01:00,
2013-01-08 06:06:00,47.8,37.8,30.06,NE,51,3.0,3.0,68,0.00,NA,NA,-99.99,VWS Version 10.39,2013-01-08 14:06:00,
2013-01-08 06:11:00,47.8,38.1,30.06,East,84,2.0,4.0,69,0.00,NA,NA,-99.99,VWS Version 10.39,2013-01-08 14:11:00,
2013-01-08 06:16:00,47.7,38.4,30.06,East,83,2.0,2.0,70,0.00,NA,NA,-99.99,VWS Version 10.39,2013-01-08 14:16:00,
2013-01-08 06:21:00,47.6,38.3,30.06,NE,47,2.0,3.0,70,0.00,NA,NA,-99.99,VWS Version 10.39,2013-01-08 14:21:00,
2013-01-08 06:26:00,47.6,37.6,30.06,NE,55,3.0,5.0,68,0.00,NA,NA,-99.99,VWS Version 10.39,2013-01-08 14:26:00,
2013-01-08 06:31:00,47.6,37.6,30.06,NE,49,2.0,3.0,68,0.00,NA,NA,-99.99,VWS Version 10.39,2013-01-08 14:31:00,
2013-01-08 06:36:00,47.8,37.0,30.06,ENE,58,5.0,6.0,66,0.00,NA,NA,-99.99,VWS Version 10.39,2013-01-08 14:36:00,
2013-01-08 06:41:00,48.1,37.7,30.06,ENE,65,1.0,2.0,67,0.00,NA,NA,-99.99,VWS Version 10.39,2013-01-08 14:41:00,
2013-01-08 06:46:00,48.3,37.9,30.06,ENE,65,3.0,3.0,67,0.00,NA,NA,-99.99,VWS Version 10.39,2013-01-08 14:46:00,
2013-01-08 06:51:00,48.3,37.9,30.06,ENE,69,2.0,2.0,67,0.00,NA,NA,-99.99,VWS Version 10.39,2013-01-08 14:51:00,
2013-01-08 06:56:00,48.3,37.9,30.07,NE,34,2.0,2.0,67,0.00,NA,NA,-99.99,VWS Version 10.39,2013-01-08 14:56:00,
2013-01-08 07:01:00,48.2,37.4,30.08,NE,50,3.0,5.0,66,0.00,NA,NA,-99.99,VWS Version 10.39,2013-01-08 15:01:00,
2013-01-08 07:06:00,47.9,37.5,30.08,ENE,57,4.0,4.0,67,0.00,NA,NA,-99.99,VWS Version 10.39,2013-01-08 15:06:00,
2013-01-08 07:11:00,48.1,37.7,30.08,East,90,3.0,3.0,67,0.00,NA,NA,-99.99,VWS Version 10.39,2013-01-08 15:11:00,
2013-01-08 07:16:00,48.1,38.0,30.08,East,90,1.0,2.0,68,0.00,NA,NA,-99.99,VWS Version 10.39,2013-01-08 15:16:00,
2013-01-08 07:26:00,48.4,38.3,30.08,ENE,60,1.0,2.0,68,0.00,NA,NA,-99.99,VWS Version 10.39,2013-01-08 15:26:00,
2013-01-08 07:31:00,48.8,38.3,30.08,ENE,69,0.0,2.0,67,0.00,NA,NA,-99.99,VWS Version 10.39,2013-01-08 15:31:00,
2013-01-08 07:36:00,49.1,38.2,30.08,NE,52,4.0,5.0,66,0.00,NA,NA,-99.99,VWS Version 10.39,2013-01-08 15:36:00,
2013-01-08 07:41:00,49.0,38.5,30.08,ENE,65,3.0,4.0,67,0.00,NA,NA,-99.99,VWS Version 10.39,2013-01-08 15:41:00,
2013-01-08 07:46:00,49.6,39.1,30.08,NE,53,3.0,3.0,67,0.00,NA,NA,-99.99,VWS Version 10.39,2013-01-08 15:46:00,
2013-01-08 07:51:00,50.2,38.9,30.08,NE,45,3.0,3.0,65,0.00,NA,NA,-99.99,VWS Version 10.39,2013-01-08 15:51:00,
2013-01-08 07:56:00,50.5,39.2,30.08,NE,56,2.0,3.0,65,0.00,NA,NA,-99.99,VWS Version 10.39,2013-01-08 15:56:00,
2013-01-08 08:01:00,51.0,39.3,30.08,NE,53,3.0,4.0,64,0.00,NA,NA,-99.99,VWS Version 10.39,2013-01-08 16:01:00,
2013-01-08 08:06:00,51.3,39.5,30.08,NE,55,4.0,5.0,64,0.00,NA,NA,-99.99,VWS Version 10.39,2013-01-08 16:06:00,
2013-01-08 08:11:00,51.5,39.3,30.08,ENE,69,2.0,3.0,63,0.00,NA,NA,-99.99,VWS Version 10.39,2013-01-08 16:11:00,
2013-01-08 08:16:00,52.1,39.5,30.08,East,86,2.0,3.0,62,0.00,NA,NA,-99.99,VWS Version 10.39,2013-01-08 16:16:00,
2013-01-08 08:21:00,53.0,39.9,30.08,ENE,71,2.0,2.0,61,0.00,NA,NA,-99.99,VWS Version 10.39,2013-01-08 16:21:00,
2013-01-08 08:26:00,53.7,40.2,30.08,East,96,0.0,1.0,60,0.00,NA,NA,-99.99,VWS Version 10.39,2013-01-08 16:26:00,
2013-01-08 08:31:00,54.4,40.0,30.08,East,96,2.0,2.0,58,0.00,NA,NA,-99.99,VWS Version 10.39,2013-01-08 16:31:00,
2013-01-08 08:36:00,55.1,40.6,30.08,East,96,1.0,1.0,58,0.00,NA,NA,-99.99,VWS Version 10.39,2013-01-08 16:36:00,
2013-01-08 08:41:00,55.8,41.3,30.08,ESE,119,0.0,2.0,58,0.00,NA,NA,-99.99,VWS Version 10.39,2013-01-08 16:41:00,
2013-01-08 08:46:00,56.4,40.9,30.08,East,91,3.0,3.0,56,0.00,NA,NA,-99.99,VWS Version 10.39,2013-01-08 16:46:00,
2013-01-08 08:51:00,56.8,41.8,30.08,ENE,78,2.0,2.0,57,0.00,NA,NA,-99.99,VWS Version 10.39,2013-01-08 16:51:00,
2013-01-08 08:56:00,57.1,42.5,30.08,ESE,109,3.0,3.0,58,0.00,NA,NA,-99.99,VWS Version 10.39,2013-01-08 16:56:00,
2013-01-08 09:01:00,57.5,42.8,30.08,SE,131,1.0,3.0,58,0.00,NA,NA,-99.99,VWS Version 10.39,2013-01-08 17:01:00,
2013-01-08 09:06:00,57.7,43.5,30.08,East,84,3.0,3.0,59,0.00,NA,NA,-99.99,VWS Version 10.39,2013-01-08 17:06:00,
2013-01-08 09:11:00,57.8,44.0,30.08,ESE,107,2.0,3.0,60,0.00,NA,NA,-99.99,VWS Version 10.39,2013-01-08 17:11:00,
2013-01-08 09:16:00,58.3,44.9,30.08,ESE,119,3.0,3.0,61,0.00,NA,NA,-99.99,VWS Version 10.39,2013-01-08 17:16:00,
2013-01-08 09:21:00,58.6,45.6,30.08,ESE,110,0.0,1.0,62,0.00,NA,NA,-99.99,VWS Version 10.39,2013-01-08 17:21:00,
2013-01-08 09:26:00,59.3,45.0,30.08,SSE,161,0.0,2.0,59,0.00,NA,NA,-99.99,VWS Version 10.39,2013-01-08 17:26:00,
2013-01-08 09:31:00,60.0,46.1,30.08,SSW,202,1.0,1.0,60,0.00,NA,NA,-99.99,VWS Version 10.39,2013-01-08 17:31:00,
2013-01-08 09:36:00,60.2,45.8,30.08,WNW,286,1.0,4.0,59,0.00,NA,NA,-99.99,VWS Version 10.39,2013-01-08 17:36:00,
2013-01-08 09:41:00,59.9,46.0,30.08,West,271,3.0,3.0,60,0.00,NA,NA,-99.99,VWS Version 10.39,2013-01-08 17:41:00,
2013-01-08 09:46:00,59.4,44.6,30.08,NW,309,1.0,2.0,58,0.00,NA,NA,-99.99,VWS Version 10.39,2013-01-08 17:46:00,
2013-01-08 09:51:00,58.9,44.6,30.08,WSW,252,1.0,2.0,59,0.00,NA,NA,-99.99,VWS Version 10.39,2013-01-08 17:51:00,
2013-01-08 09:56:00,59.0,44.7,30.08,SW,219,1.0,2.0,59,0.00,NA,NA,-99.99,VWS Version 10.39,2013-01-08 17:56:00,
2013-01-08 10:01:00,59.5,46.1,30.08,WSW,237,2.0,2.0,61,0.00,NA,NA,-99.99,VWS Version 10.39,2013-01-08 18:01:00,
2013-01-08 10:06:00,59.8,46.8,30.08,West,262,2.0,2.0,62,0.00,NA,NA,-99.99,VWS Version 10.39,2013-01-08 18:06:00,
2013-01-08 10:11:00,60.0,47.0,30.08,WSW,247,3.0,4.0,62,0.00,NA,NA,-99.99,VWS Version 10.39,2013-01-08 18:11:00,
2013-01-08 10:16:00,60.3,47.7,30.08,WSW,254,1.0,2.0,63,0.00,NA,NA,-99.99,VWS Version 10.39,2013-01-08 18:16:00,
2013-01-08 10:21:00,60.8,49.4,30.08,SW,217,2.0,2.0,66,0.00,NA,NA,-99.99,VWS Version 10.39,2013-01-08 18:21:00,
2013-01-08 10:26:00,60.7,49.3,30.08,West,264,1.0,4.0,66,0.00,NA,NA,-99.99,VWS Version 10.39,2013-01-08 18:26:00,
2013-01-08 10:31:00,60.6,48.4,30.08,WSW,242,2.0,3.0,64,0.00,NA,NA,-99.99,VWS Version 10.39,2013-01-08 18:31:00,
2013-01-08 10:36:00,60.6,47.5,30.08,West,263,1.0,3.0,62,0.00,NA,NA,-99.99,VWS Version 10.39,2013-01-08 18:36:00,
2013-01-08 10:41:00,60.6,47.1,30.08,WSW,244,3.0,4.0,61,0.00,NA,NA,-99.99,VWS Version 10.39,2013-01-08 18:41:00,
2013-01-08 10:46:00,60.5,47.4,30.08,SW,230,0.0,2.0,62,0.00,NA,NA,-99.99,VWS Version 10.39,2013-01-08 18:46:00,
2013-01-08 10:51:00,61.2,48.5,30.08,SW,234,2.0,3.0,63,0.00,NA,NA,-99.99,VWS Version 10.39,2013-01-08 18:51:00,
2013-01-08 10:56:00,61.4,47.8,30.08,SW,225,2.0,2.0,61,0.00,NA,NA,-99.99,VWS Version 10.39,2013-01-08 18:56:00,
2013-01-08 11:01:00,61.7,47.7,30.08,SSW,205,4.0,4.0,60,0.00,NA,NA,-99.99,VWS Version 10.39,2013-01-08 19:01:00,
2013-01-08 11:06:00,61.4,45.6,30.08,SW,229,0.0,2.0,56,0.00,NA,NA,-99.99,VWS Version 10.39,2013-01-08 19:06:00,
2013-01-08 11:11:00,61.7,44.9,30.08,SW,218,2.0,3.0,54,0.00,NA,NA,-99.99,VWS Version 10.39,2013-01-08 19:11:00,
2013-01-08 11:16:00,62.1,45.3,30.08,SW,214,1.0,3.0,54,0.00,NA,NA,-99.99,VWS Version 10.39,2013-01-08 19:16:00,
2013-01-08 11:21:00,62.4,46.0,30.08,WSW,246,1.0,2.0,55,0.00,NA,NA,-99.99,VWS Version 10.39,2013-01-08 19:21:00,
2013-01-08 11:26:00,62.5,45.7,30.08,SW,229,0.0,4.0,54,0.00,NA,NA,-99.99,VWS Version 10.39,2013-01-08 19:26:00,
2013-01-08 11:31:00,62.3,46.4,30.08,SW,224,2.0,3.0,56,0.00,NA,NA,-99.99,VWS Version 10.39,2013-01-08 19:31:00,
2013-01-08 11:36:00,62.2,46.8,30.08,SSW,201,1.0,4.0,57,0.00,NA,NA,-99.99,VWS Version 10.39,2013-01-08 19:36:00,
2013-01-08 11:41:00,61.8,46.9,30.08,South,187,2.0,4.0,58,0.00,NA,NA,-99.99,VWS Version 10.39,2013-01-08 19:41:00,
2013-01-08 11:46:00,61.5,43.7,30.08,WSW,242,0.0,2.0,52,0.00,NA,NA,-99.99,VWS Version 10.39,2013-01-08 19:46:00,
2013-01-08 11:51:00,61.4,46.0,30.08,West,278,2.0,3.0,57,0.00,NA,NA,-99.99,VWS Version 10.39,2013-01-08 19:51:00,
2013-01-08 11:56:00,60.8,44.1,30.08,West,281,0.0,2.0,54,0.00,NA,NA,-99.99,VWS Version 10.39,2013-01-08 19:56:00,
2013-01-08 12:01:00,60.8,42.6,30.08,NW,306,3.0,3.0,51,0.00,NA,NA,-99.99,VWS Version 10.39,2013-01-08 20:01:00,
2013-01-08 12:06:00,60.5,40.2,30.08,WNW,284,1.0,3.0,47,0.00,NA,NA,-99.99,VWS Version 10.39,2013-01-08 20:06:00,
2013-01-08 12:11:00,60.9,40.5,30.08,WNW,289,0.0,2.0,47,0.00,NA,NA,-99.99,VWS Version 10.39,2013-01-08 20:11:00,
2013-01-08 12:16:00,61.4,40.5,30.08,SSW,213,1.0,3.0,46,0.00,NA,NA,-99.99,VWS Version 10.39,2013-01-08 20:16:00,
2013-01-08 12:21:00,62.2,36.3,30.08,West,261,1.0,3.0,38,0.00,NA,NA,-99.99,VWS Version 10.39,2013-01-08 20:21:00,
2013-01-08 12:26:00,62.7,34.7,30.08,SSW,192,0.0,3.0,35,0.00,NA,NA,-99.99,VWS Version 10.39,2013-01-08 20:26:00,
2013-01-08 12:31:00,63.2,37.2,30.08,NNW,346,2.0,4.0,38,0.00,NA,NA,-99.99,VWS Version 10.39,2013-01-08 20:31:00,
2013-01-08 12:36:00,63.7,40.8,30.08,SW,236,1.0,3.0,43,0.00,NA,NA,-99.99,VWS Version 10.39,2013-01-08 20:36:00,
2013-01-08 12:41:00,63.3,42.2,30.08,WSW,248,1.0,4.0,46,0.00,NA,NA,-99.99,VWS Version 10.39,2013-01-08 20:41:00,
2013-01-08 12:46:00,63.3,40.5,30.08,NW,314,3.0,4.0,43,0.00,NA,NA,-99.99,VWS Version 10.39,2013-01-08 20:46:00,
2013-01-08 12:51:00,63.0,40.2,30.08,SSW,211,3.0,3.0,43,0.00,NA,NA,-99.99,VWS Version 10.39,2013-01-08 20:51:00,
2013-01-08 12:56:00,62.9,38.2,30.08,West,264,3.0,4.0,40,0.00,NA,NA,-99.99,VWS Version 10.39,2013-01-08 20:56:00,
2013-01-08 13:01:00,62.7,37.4,30.08,West,261,0.0,3.0,39,0.00,NA,NA,-99.99,VWS Version 10.39,2013-01-08 21:01:00,
2013-01-08 13:11:00,63.3,36.6,30.08,WSW,252,1.0,4.0,37,0.00,NA,NA,-99.99,VWS Version 10.39,2013-01-08 21:11:00,
2013-01-08 13:16:00,63.3,38.0,30.04,West,263,2.0,5.0,39,0.00,NA,NA,-99.99,VWS Version 10.39,2013-01-08 21:16:00,
2013-01-08 13:21:00,63.0,38.3,30.04,SW,235,3.0,4.0,40,0.00,NA,NA,-99.99,VWS Version 10.39,2013-01-08 21:21:00,
2013-01-08 13:26:00,62.7,38.0,30.04,South,189,1.0,3.0,40,0.00,NA,NA,-99.99,VWS Version 10.39,2013-01-08 21:26:00,
2013-01-08 13:31:00,62.9,39.5,30.04,West,274,0.0,1.0,42,0.00,NA,NA,-99.99,VWS Version 10.39,2013-01-08 21:31:00,
2013-01-08 13:36:00,63.4,40.5,30.04,West,274,0.0,1.0,43,0.00,NA,NA,-99.99,VWS Version 10.39,2013-01-08 21:36:00,
2013-01-08 13:41:00,63.8,41.5,30.04,West,276,0.0,2.0,44,0.00,NA,NA,-99.99,VWS Version 10.39,2013-01-08 21:41:00,
2013-01-08 13:46:00,63.9,39.1,30.04,West,261,3.0,6.0,40,0.00,NA,NA,-99.99,VWS Version 10.39,2013-01-08 21:46:00,
2013-01-08 13:51:00,63.4,39.9,30.04,WSW,240,1.0,6.0,42,0.00,NA,NA,-99.99,VWS Version 10.39,2013-01-08 21:51:00,
2013-01-08 13:56:00,63.1,39.0,30.04,SW,232,1.0,2.0,41,0.00,NA,NA,-99.99,VWS Version 10.39,2013-01-08 21:56:00,
2013-01-08 14:01:00,63.1,42.6,30.04,West,267,1.0,2.0,47,0.00,NA,NA,-99.99,VWS Version 10.39,2013-01-08 22:01:00,
2013-01-08 14:11:00,63.3,44.4,30.04,SW,232,2.0,2.0,50,0.00,NA,NA,-99.99,VWS Version 10.39,2013-01-08 22:11:00,
2013-01-08 14:16:00,63.8,44.3,30.04,NW,319,0.0,3.0,49,0.00,NA,NA,-99.99,VWS Version 10.39,2013-01-08 22:16:00,
2013-01-08 14:21:00,64.0,44.5,30.04,SW,228,3.0,5.0,49,0.00,NA,NA,-99.99,VWS Version 10.39,2013-01-08 22:21:00,
2013-01-08 14:26:00,63.6,46.2,30.04,NW,323,3.0,5.0,53,0.00,NA,NA,-99.99,VWS Version 10.39,2013-01-08 22:26:00,
2013-01-08 14:31:00,62.3,46.9,30.04,West,263,5.0,7.0,57,0.00,NA,NA,-99.99,VWS Version 10.39,2013-01-08 22:31:00,
2013-01-08 14:36:00,61.7,47.2,30.04,North,360,1.0,4.0,59,0.00,NA,NA,-99.99,VWS Version 10.39,2013-01-08 22:36:00,
2013-01-08 14:41:00,61.3,47.8,30.04,WNW,289,1.0,4.0,61,0.00,NA,NA,-99.99,VWS Version 10.39,2013-01-08 22:41:00,
2013-01-08 14:46:00,61.1,48.4,30.04,NW,316,3.0,3.0,63,0.00,NA,NA,-99.99,VWS Version 10.39,2013-01-08 22:46:00,
2013-01-08 14:51:00,61.0,48.3,30.04,NNW,348,2.0,3.0,63,0.00,NA,NA,-99.99,VWS Version 10.39,2013-01-08 22:51:00,
2013-01-08 14:56:00,61.1,48.0,30.04,WNW,294,1.0,3.0,62,0.00,NA,NA,-99.99,VWS Version 10.39,2013-01-08 22:56:00,
2013-01-08 15:01:00,60.9,48.7,30.04,NW,306,2.0,4.0,64,0.00,NA,NA,-99.99,VWS Version 10.39,2013-01-08 23:01:00,
2013-01-08 15:06:00,61.0,48.3,30.04,West,263,2.0,4.0,63,0.00,NA,NA,-99.99,VWS Version 10.39,2013-01-08 23:06:00,
2013-01-08 15:11:00,60.4,48.6,30.04,WNW,298,3.0,3.0,65,0.00,NA,NA,-99.99,VWS Version 10.39,2013-01-08 23:11:00,
2013-01-08 15:16:00,60.4,48.2,30.04,WSW,240,4.0,7.0,64,0.00,NA,NA,-99.99,VWS Version 10.39,2013-01-08 23:16:00,
2013-01-08 15:21:00,60.3,48.1,30.04,WNW,301,3.0,3.0,64,0.00,NA,NA,-99.99,VWS Version 10.39,2013-01-08 23:21:00,
2013-01-08 15:26:00,60.1,47.9,30.04,WSW,251,2.0,2.0,64,0.00,NA,NA,-99.99,VWS Version 10.39,2013-01-08 23:26:00,
2013-01-08 15:31:00,60.3,48.5,30.04,NW,311,1.0,3.0,65,0.00,NA,NA,-99.99,VWS Version 10.39,2013-01-08 23:31:00,
2013-01-08 15:36:00,60.5,48.3,30.04,WSW,245,2.0,4.0,64,0.00,NA,NA,-99.99,VWS Version 10.39,2013-01-08 23:36:00,
2013-01-08 15:41:00,60.7,48.5,30.04,WSW,254,1.0,3.0,64,0.00,NA,NA,-99.99,VWS Version 10.39,2013-01-08 23:41:00,
2013-01-08 15:46:00,60.9,48.7,30.04,WSW,253,0.0,1.0,64,0.00,NA,NA,-99.99,VWS Version 10.39,2013-01-08 23:46:00,
2013-01-08 15:51:00,60.9,48.7,30.04,WNW,295,2.0,2.0,64,0.00,NA,NA,-99.99,VWS Version 10.39,2013-01-08 23:51:00,
2013-01-08 15:56:00,60.7,48.5,30.04,WNW,295,0.0,1.0,64,0.00,NA,NA,-99.99,VWS Version 10.39,2013-01-08 23:56:00,
2013-01-08 16:01:00,60.6,48.4,30.04,WNW,295,0.0,0.0,64,0.00,NA,NA,-99.99,VWS Version 10.39,2013-01-09 00:01:00,
2013-01-08 16:11:00,61.1,48.4,30.04,WNW,295,1.0,2.0,63,0.00,NA,NA,-99.99,VWS Version 10.39,2013-01-09 00:11:00,
2013-01-08 16:16:00,61.0,48.8,30.04,West,280,0.0,2.0,64,0.00,NA,NA,-99.99,VWS Version 10.39,2013-01-09 00:16:00,
2013-01-08 16:21:00,61.1,48.8,30.04,West,277,2.0,2.0,64,0.00,NA,NA,-99.99,VWS Version 10.39,2013-01-09 00:21:00,
2013-01-08 16:26:00,61.2,49.3,30.04,West,271,1.0,1.0,65,0.00,NA,NA,-99.99,VWS Version 10.39,2013-01-09 00:26:00,
2013-01-08 16:31:00,61.1,49.3,30.04,SW,229,0.0,1.0,65,0.00,NA,NA,-99.99,VWS Version 10.39,2013-01-09 00:31:00,
2013-01-08 16:36:00,60.9,49.5,30.04,WSW,245,1.0,2.0,66,0.00,NA,NA,-99.99,VWS Version 10.39,2013-01-09 00:36:00,
2013-01-08 16:41:00,60.3,49.3,30.04,SW,234,2.0,2.0,67,0.00,NA,NA,-99.99,VWS Version 10.39,2013-01-09 00:41:00,
2013-01-08 16:46:00,59.6,48.6,30.04,SW,215,2.0,4.0,67,0.00,NA,NA,-99.99,VWS Version 10.39,2013-01-09 00:46:00,
2013-01-08 16:51:00,58.9,48.4,30.04,WSW,239,1.0,2.0,68,0.00,NA,NA,-99.99,VWS Version 10.39,2013-01-09 00:51:00,
2013-01-08 16:56:00,58.4,48.3,30.04,WSW,239,0.0,0.0,69,0.00,NA,NA,-99.99,VWS Version 10.39,2013-01-09 00:56:00,
2013-01-08 17:01:00,57.9,48.6,30.04,WSW,256,0.0,1.0,71,0.00,NA,NA,-99.99,VWS Version 10.39,2013-01-09 01:01:00,
2013-01-08 17:06:00,57.5,48.6,30.04,WSW,256,0.0,1.0,72,0.00,NA,NA,-99.99,VWS Version 10.39,2013-01-09 01:06:00,
2013-01-08 17:11:00,57.2,48.6,30.04,WSW,256,0.0,1.0,73,0.00,NA,NA,-99.99,VWS Version 10.39,2013-01-09 01:11:00,
2013-01-08 17:16:00,57.0,48.4,30.04,WSW,256,0.0,0.0,73,0.00,NA,NA,-99.99,VWS Version 10.39,2013-01-09 01:16:00,
2013-01-08 17:21:00,56.7,48.5,30.04,WSW,256,0.0,0.0,74,0.00,NA,NA,-99.99,VWS Version 10.39,2013-01-09 01:21:00,
2013-01-08 17:26:00,56.5,48.3,30.04,WSW,256,0.0,0.0,74,0.00,NA,NA,-99.99,VWS Version 10.39,2013-01-09 01:26:00,
2013-01-08 17:31:00,56.2,48.4,30.04,WSW,256,0.0,0.0,75,0.00,NA,NA,-99.99,VWS Version 10.39,2013-01-09 01:31:00,
2013-01-08 17:36:00,55.9,48.5,30.04,WSW,256,0.0,0.0,76,0.00,NA,NA,-99.99,VWS Version 10.39,2013-01-09 01:36:00,
2013-01-08 17:41:00,55.6,48.2,30.04,WSW,256,0.0,0.0,76,0.00,NA,NA,-99.99,VWS Version 10.39,2013-01-09 01:41:00,
2013-01-08 17:46:00,55.3,47.9,30.04,WSW,256,0.0,0.0,76,0.00,NA,NA,-99.99,VWS Version 10.39,2013-01-09 01:46:00,
2013-01-08 17:51:00,55.1,48.0,30.04,WSW,256,0.0,0.0,77,0.00,NA,NA,-99.99,VWS Version 10.39,2013-01-09 01:51:00,
2013-01-08 17:56:00,55.0,47.9,30.04,WSW,256,2.0,2.0,77,0.00,NA,NA,-99.99,VWS Version 10.39,2013-01-09 01:56:00,
2013-01-08 18:01:00,54.9,48.2,30.04,NE,54,1.0,2.0,78,0.00,NA,NA,-99.99,VWS Version 10.39,2013-01-09 02:01:00,
2013-01-08 18:06:00,54.6,47.9,30.04,NE,56,2.0,2.0,78,0.00,NA,NA,-99.99,VWS Version 10.39,2013-01-09 02:06:00,
2013-01-08 18:11:00,54.3,47.9,30.04,NE,56,3.0,3.0,79,0.00,NA,NA,-99.99,VWS Version 10.39,2013-01-09 02:11:00,
2013-01-08 18:16:00,54.1,48.1,30.04,ENE,61,4.0,4.0,80,0.00,NA,NA,-99.99,VWS Version 10.39,2013-01-09 02:16:00,
2013-01-08 18:21:00,53.8,48.1,30.04,NE,51,0.0,2.0,81,0.00,NA,NA,-99.99,VWS Version 10.39,2013-01-09 02:21:00,
2013-01-08 18:26:00,53.8,48.1,30.04,ENE,59,2.0,3.0,81,0.00,NA,NA,-99.99,VWS Version 10.39,2013-01-09 02:26:00,
2013-01-08 18:31:00,54.0,48.3,30.04,ENE,71,2.0,2.0,81,0.00,NA,NA,-99.99,VWS Version 10.39,2013-01-09 02:31:00,
2013-01-08 18:36:00,54.3,48.9,30.04,ENE,71,1.0,2.0,82,0.00,NA,NA,-99.99,VWS Version 10.39,2013-01-09 02:36:00,
2013-01-08 18:41:00,54.4,48.7,30.04,ENE,71,0.0,1.0,81,0.00,NA,NA,-99.99,VWS Version 10.39,2013-01-09 02:41:00,
2013-01-08 18:46:00,54.2,48.2,30.04,NE,50,1.0,3.0,80,0.00,NA,NA,-99.99,VWS Version 10.39,2013-01-09 02:46:00,
2013-01-08 18:51:00,54.0,48.3,30.04,NE,50,2.0,2.0,81,0.00,NA,NA,-99.99,VWS Version 10.39,2013-01-09 02:51:00,
2013-01-08 18:56:00,54.0,48.6,30.04,NE,50,1.0,2.0,82,0.00,NA,NA,-99.99,VWS Version 10.39,2013-01-09 02:56:00,
2013-01-08 19:01:00,53.8,48.1,30.04,NE,50,0.0,1.0,81,0.00,NA,NA,-99.99,VWS Version 10.39,2013-01-09 03:01:00,
2013-01-08 19:06:00,53.5,47.8,30.04,NE,51,2.0,3.0,81,0.00,NA,NA,-99.99,VWS Version 10.39,2013-01-09 03:06:00,
2013-01-08 19:11:00,53.5,47.8,30.04,ENE,61,0.0,1.0,81,0.00,NA,NA,-99.99,VWS Version 10.39,2013-01-09 03:11:00,
2013-01-08 19:16:00,53.5,47.5,30.04,ENE,69,1.0,2.0,80,0.00,NA,NA,-99.99,VWS Version 10.39,2013-01-09 03:16:00,
2013-01-08 19:21:00,53.4,47.4,30.04,ENE,69,0.0,1.0,80,0.00,NA,NA,-99.99,VWS Version 10.39,2013-01-09 03:21:00,
2013-01-08 19:31:00,53.3,47.3,30.09,ENE,59,2.0,2.0,80,0.00,NA,NA,-99.99,VWS Version 10.39,2013-01-09 03:31:00,
2013-01-08 19:36:00,53.2,47.2,30.09,ENE,59,2.0,2.0,80,0.00,NA,NA,-99.99,VWS Version 10.39,2013-01-09 03:36:00,
2013-01-08 19:41:00,53.0,47.0,30.09,NE,56,3.0,3.0,80,0.00,NA,NA,-99.99,VWS Version 10.39,2013-01-09 03:41:00,
2013-01-08 19:46:00,53.1,47.4,30.09,ENE,57,2.0,3.0,81,0.00,NA,NA,-99.99,VWS Version 10.39,2013-01-09 03:46:00,
2013-01-08 19:56:00,53.1,47.1,30.09,ENE,57,2.0,2.0,80,0.00,NA,NA,-99.99,VWS Version 10.39,2013-01-09 03:56:00,
2013-01-08 20:01:00,53.1,46.8,30.09,ENE,65,1.0,3.0,79,0.00,NA,NA,-99.99,VWS Version 10.39,2013-01-09 04:01:00,
2013-01-08 20:06:00,53.2,46.9,30.09,ENE,65,1.0,1.0,79,0.00,NA,NA,-99.99,VWS Version 10.39,2013-01-09 04:06:00,
2013-01-08 20:11:00,53.1,46.8,30.09,NE,53,2.0,3.0,79,0.00,NA,NA,-99.99,VWS Version 10.39,2013-01-09 04:11:00,
2013-01-08 20:16:00,52.9,46.2,30.09,NE,49,3.0,5.0,78,0.00,NA,NA,-99.99,VWS Version 10.39,2013-01-09 04:16:00,
2013-01-08 20:21:00,52.9,46.2,30.09,NE,46,4.0,4.0,78,0.00,NA,NA,-99.99,VWS Version 10.39,2013-01-09 04:21:00,
2013-01-08 20:26:00,53.2,46.5,30.09,NE,56,3.0,4.0,78,0.00,NA,NA,-99.99,VWS Version 10.39,2013-01-09 04:26:00,
2013-01-08 20:31:00,53.3,46.3,30.09,ENE,67,2.0,3.0,77,0.00,NA,NA,-99.99,VWS Version 10.39,2013-01-09 04:31:00,
2013-01-08 20:36:00,53.4,46.0,30.09,NE,38,2.0,3.0,76,0.00,NA,NA,-99.99,VWS Version 10.39,2013-01-09 04:36:00,
2013-01-08 20:41:00,53.3,45.6,30.09,ENE,59,1.0,3.0,75,0.00,NA,NA,-99.99,VWS Version 10.39,2013-01-09 04:41:00,
2013-01-08 20:46:00,53.4,45.3,30.09,ENE,59,2.0,3.0,74,0.00,NA,NA,-99.99,VWS Version 10.39,2013-01-09 04:46:00,
2013-01-08 20:56:00,53.5,44.7,30.09,NE,55,3.0,3.0,72,0.00,NA,NA,-99.99,VWS Version 10.39,2013-01-09 04:56:00,
2013-01-08 21:01:00,53.4,44.2,30.09,ENE,61,3.0,3.0,71,0.00,NA,NA,-99.99,VWS Version 10.39,2013-01-09 05:01:00,
2013-01-08 21:06:00,53.4,44.2,30.09,ENE,68,2.0,4.0,71,0.00,NA,NA,-99.99,VWS Version 10.39,2013-01-09 05:06:00,
2013-01-08 21:11:00,53.6,44.4,30.09,East,82,3.0,3.0,71,0.00,NA,NA,-99.99,VWS Version 10.39,2013-01-09 05:11:00,
2013-01-08 21:16:00,53.5,44.3,30.09,ENE,61,3.0,4.0,71,0.00,NA,NA,-99.99,VWS Version 10.39,2013-01-09 05:16:00,
2013-01-08 21:21:00,53.1,43.6,30.09,ENE,61,1.0,4.0,70,0.00,NA,NA,-99.99,VWS Version 10.39,2013-01-09 05:21:00,
2013-01-08 21:26:00,52.6,43.5,30.09,NE,52,2.0,4.0,71,0.00,NA,NA,-99.99,VWS Version 10.39,2013-01-09 05:26:00,
2013-01-08 21:31:00,52.4,43.3,30.09,NE,52,2.0,2.0,71,0.00,NA,NA,-99.99,VWS Version 10.39,2013-01-09 05:31:00,
2013-01-08 21:36:00,52.4,42.9,30.08,NE,54,3.0,3.0,70,0.00,NA,NA,-99.99,VWS Version 10.39,2013-01-09 05:36:00,
2013-01-08 21:41:00,52.4,42.9,30.08,NE,42,0.0,2.0,70,0.00,NA,NA,-99.99,VWS Version 10.39,2013-01-09 05:41:00,
2013-01-08 21:46:00,52.6,42.7,30.08,ENE,60,1.0,3.0,69,0.00,NA,NA,-99.99,VWS Version 10.39,2013-01-09 05:46:00,
2013-01-08 21:51:00,52.8,42.9,30.08,ENE,78,2.0,3.0,69,0.00,NA,NA,-99.99,VWS Version 10.39,2013-01-09 05:51:00,
2013-01-08 21:56:00,53.3,43.8,30.08,ENE,78,1.0,3.0,70,0.00,NA,NA,-99.99,VWS Version 10.39,2013-01-09 05:56:00,
2013-01-08 22:01:00,53.3,43.8,30.08,NE,55,2.0,3.0,70,0.00,NA,NA,-99.99,VWS Version 10.39,2013-01-09 06:01:00,
2013-01-08 22:11:00,53.0,43.5,30.08,NE,38,2.0,3.0,70,0.00,NA,NA,-99.99,VWS Version 10.39,2013-01-09 06:11:00,
2013-01-08 22:16:00,53.2,43.7,30.08,NE,38,2.0,2.0,70,0.00,NA,NA,-99.99,VWS Version 10.39,2013-01-09 06:16:00,
2013-01-08 22:21:00,53.2,43.7,30.08,NE,38,0.0,1.0,70,0.00,NA,NA,-99.99,VWS Version 10.39,2013-01-09 06:21:00,
2013-01-08 22:26:00,53.4,43.5,30.08,NE,38,2.0,3.0,69,0.00,NA,NA,-99.99,VWS Version 10.39,2013-01-09 06:26:00,
2013-01-08 22:31:00,53.5,44.0,30.08,NE,38,1.0,2.0,70,0.00,NA,NA,-99.99,VWS Version 10.39,2013-01-09 06:31:00,
2013-01-08 22:36:00,53.5,43.6,30.11,NE,38,1.0,2.0,69,0.00,NA,NA,-99.99,VWS Version 10.39,2013-01-09 06:36:00,
2013-01-08 22:41:00,52.7,43.2,30.11,NE,38,3.0,3.0,70,0.00,NA,NA,-99.99,VWS Version 10.39,2013-01-09 06:41:00,
2013-01-08 22:46:00,52.4,43.3,30.11,NE,38,2.0,3.0,71,0.00,NA,NA,-99.99,VWS Version 10.39,2013-01-09 06:46:00,
2013-01-08 22:51:00,52.6,43.5,30.11,NNE,29,2.0,4.0,71,0.00,NA,NA,-99.99,VWS Version 10.39,2013-01-09 06:51:00,
2013-01-08 22:56:00,52.7,43.2,30.11,NE,38,3.0,3.0,70,0.00,NA,NA,-99.99,VWS Version 10.39,2013-01-09 06:56:00,
2013-01-08 23:01:00,52.7,43.2,30.11,NE,55,3.0,3.0,70,0.00,NA,NA,-99.99,VWS Version 10.39,2013-01-09 07:01:00,
2013-01-08 23:06:00,52.6,42.7,30.11,NE,56,2.0,3.0,69,0.00,NA,NA,-99.99,VWS Version 10.39,2013-01-09 07:06:00,
2013-01-08 23:11:00,52.4,42.9,30.11,NE,50,2.0,3.0,70,0.00,NA,NA,-99.99,VWS Version 10.39,2013-01-09 07:11:00,
2013-01-08 23:16:00,52.5,42.3,30.11,NE,55,3.0,3.0,68,0.00,NA,NA,-99.99,VWS Version 10.39,2013-01-09 07:16:00,
2013-01-08 23:21:00,52.7,42.8,30.11,NE,45,3.0,3.0,69,0.00,NA,NA,-99.99,VWS Version 10.39,2013-01-09 07:21:00,
2013-01-08 23:26:00,52.8,42.9,30.11,ENE,57,3.0,4.0,69,0.00,NA,NA,-99.99,VWS Version 10.39,2013-01-09 07:26:00,
2013-01-08 23:31:00,52.6,42.7,30.11,ENE,59,4.0,4.0,69,0.00,NA,NA,-99.99,VWS Version 10.39,2013-01-09 07:31:00,
2013-01-08 23:36:00,52.8,43.3,30.11,ENE,64,2.0,4.0,70,0.00,NA,NA,-99.99,VWS Version 10.39,2013-01-09 07:36:00,
2013-01-08 23:41:00,53.0,43.1,30.11,ENE,64,2.0,3.0,69,0.00,NA,NA,-99.99,VWS Version 10.39,2013-01-09 07:41:00,
2013-01-08 23:46:00,52.7,43.2,30.11,ENE,64,2.0,2.0,70,0.00,NA,NA,-99.99,VWS Version 10.39,2013-01-09 07:46:00,
2013-01-08 23:51:00,52.9,43.0,30.11,NE,53,2.0,4.0,69,0.00,NA,NA,-99.99,VWS Version 10.39,2013-01-09 07:51:00,
2013-01-08 23:56:00,52.6,42.7,30.11,NE,51,3.0,5.0,69,0.00,NA,NA,-99.99,VWS Version 10.39,2013-01-09 07:56:00,